| time (UTC) | temp C | wind direction | speed KPH | gust KPH | rain 1hr cm | rain 24hr cm | rain mn cm | humidity % | barometer mb |
| 20260503192942 | 0 | 13 | 29.0 | 43.5 | 0.00 | 0.00 | 0.00 | 66 | 813.0 |
| 20260503192832 | 0 | 10 | 32.2 | 40.2 | 0.00 | 0.00 | 0.00 | 66 | 812.7 |
| 20260503192722 | 0 | 11 | 30.6 | 46.7 | 0.00 | 0.00 | 0.00 | 66 | 812.9 |
| 20260503192612 | 0 | 11 | 30.6 | 43.5 | 0.00 | 0.00 | 0.00 | 66 | 812.9 |
| 20260503192502 | 0 | 11 | 30.6 | 43.5 | 0.00 | 0.00 | 0.00 | 66 | 812.9 |
| 20260503192242 | 0 | 8 | 32.2 | 40.2 | 0.00 | 0.00 | 0.00 | 65 | 812.9 |
| 20260503192132 | 0 | 9 | 32.2 | 41.8 | 0.00 | 0.00 | 0.00 | 66 | 812.9 |
| 20260503192022 | 0 | 5 | 32.2 | 41.8 | 0.00 | 0.00 | 0.00 | 66 | 812.9 |
| 20260503191912 | 0 | 10 | 30.6 | 40.2 | 0.00 | 0.00 | 0.00 | 65 | 812.9 |
| 20260503191802 | 0 | 12 | 30.6 | 38.6 | 0.00 | 0.00 | 0.00 | 66 | 812.9 |
| 20260503191652 | 0 | 5 | 29.0 | 37.0 | 0.00 | 0.00 | 0.00 | 66 | 813.0 |
| 20260503191432 | 0 | 5 | 30.6 | 37.0 | 0.00 | 0.00 | 0.00 | 66 | 812.9 |
| 20260503191321 | 0 | 6 | 30.6 | 37.0 | 0.00 | 0.00 | 0.00 | 66 | 812.9 |
| 20260503191212 | 0 | 4 | 32.2 | 40.2 | 0.00 | 0.00 | 0.00 | 66 | 812.7 |
| 20260503190952 | 0 | 8 | 30.6 | 38.6 | 0.00 | 0.00 | 0.00 | 66 | 813.0 |
| 20260503190842 | 0 | 14 | 30.6 | 37.0 | 0.00 | 0.00 | 0.00 | 67 | 813.0 |
| 20260503190731 | 0 | 11 | 30.6 | 38.6 | 0.00 | 0.00 | 0.00 | 67 | 813.0 |
| 20260503190621 | 0 | 4 | 33.8 | 40.2 | 0.00 | 0.00 | 0.00 | 67 | 812.9 |
| 20260503190512 | 0 | 6 | 27.4 | 33.8 | 0.00 | 0.00 | 0.00 | 67 | 813.0 |
| 20260503190142 | 0 | 9 | 35.4 | 43.5 | 0.00 | 0.00 | 0.00 | 66 | 812.7 |
| 20260503190032 | 0 | 8 | 30.6 | 40.2 | 0.00 | 0.00 | 0.00 | 66 | 813.0 |
| 20260503185922 | 0 | 7 | 27.4 | 32.2 | 0.00 | 0.00 | 0.00 | 66 | 813.0 |
| 20260503185702 | 0 | 9 | 32.2 | 38.6 | 0.00 | 0.00 | 0.00 | 67 | 813.0 |
| 20260503185442 | 0 | 9 | 29.0 | 40.2 | 0.00 | 0.00 | 0.00 | 66 | 812.9 |
| 20260503185332 | 0 | 1 | 30.6 | 40.2 | 0.00 | 0.00 | 0.00 | 66 | 813.0 |
| 20260503185222 | 0 | 8 | 37.0 | 45.1 | 0.00 | 0.00 | 0.00 | 66 | 813.0 |
| 20260503185002 | 0 | 7 | 30.6 | 41.8 | 0.00 | 0.00 | 0.00 | 65 | 813.0 |
| 20260503184852 | 0 | 0 | 27.4 | 35.4 | 0.00 | 0.00 | 0.00 | 65 | 813.0 |
| 20260503184522 | 0 | 7 | 33.8 | 41.8 | 0.00 | 0.00 | 0.00 | 66 | 812.9 |
| 20260503184412 | 0 | 8 | 37.0 | 51.5 | 0.00 | 0.00 | 0.00 | 66 | 812.7 |
| 20260503184301 | 0 | 11 | 32.2 | 43.5 | 0.00 | 0.00 | 0.00 | 66 | 812.9 |
| 20260503183932 | 0 | 8 | 29.0 | 35.4 | 0.00 | 0.00 | 0.00 | 64 | 813.0 |
| 20260503183821 | 0 | 6 | 29.0 | 37.0 | 0.00 | 0.00 | 0.00 | 64 | 813.0 |
| 20260503183712 | 0 | 2 | 25.7 | 33.8 | 0.00 | 0.00 | 0.00 | 64 | 813.0 |
| 20260503183602 | 0 | 2 | 32.2 | 40.2 | 0.00 | 0.00 | 0.00 | 64 | 812.9 |
| 20260503183452 | 0 | 358 | 25.7 | 37.0 | 0.00 | 0.00 | 0.00 | 64 | 813.0 |
| 20260503183342 | 0 | 0 | 29.0 | 37.0 | 0.00 | 0.00 | 0.00 | 64 | 813.0 |
| 20260503183122 | 0 | 0 | 27.4 | 33.8 | 0.00 | 0.00 | 0.00 | 63 | 813.0 |
| 20260503183012 | 0 | 356 | 25.7 | 32.2 | 0.00 | 0.00 | 0.00 | 63 | 813.0 |
| 20260503182752 | 0 | 358 | 24.1 | 32.2 | 0.00 | 0.00 | 0.00 | 63 | 813.0 |
| 20260503182642 | 0 | 358 | 24.1 | 32.2 | 0.00 | 0.00 | 0.00 | 63 | 813.0 |
| 20260503182532 | 0 | 3 | 24.1 | 29.0 | 0.00 | 0.00 | 0.00 | 63 | 813.0 |
| 20260503182421 | 0 | 0 | 24.1 | 29.0 | 0.00 | 0.00 | 0.00 | 63 | 813.0 |
| 20260503182202 | 0 | 0 | 25.7 | 30.6 | 0.00 | 0.00 | 0.00 | 64 | 813.0 |
| 20260503182052 | 0 | 0 | 22.5 | 27.4 | 0.00 | 0.00 | 0.00 | 64 | 813.0 |
| 20260503181942 | 0 | 1 | 24.1 | 33.8 | 0.00 | 0.00 | 0.00 | 63 | 813.0 |
| 20260503181721 | 0 | 3 | 24.1 | 33.8 | 0.00 | 0.00 | 0.00 | 63 | 813.0 |
| 20260503181612 | 0 | 5 | 22.5 | 27.4 | 0.00 | 0.00 | 0.00 | 63 | 813.0 |
| 20260503181502 | 0 | 3 | 22.5 | 27.4 | 0.00 | 0.00 | 0.00 | 63 | 813.0 |
| 20260503181352 | 0 | 2 | 22.5 | 30.6 | 0.00 | 0.00 | 0.00 | 63 | 813.0 |
| 20260503181241 | 0 | 2 | 24.1 | 30.6 | 0.00 | 0.00 | 0.00 | 63 | 813.0 |
| 20260503181132 | 0 | 356 | 22.5 | 27.4 | 0.00 | 0.00 | 0.00 | 63 | 813.1 |
| 20260503181022 | 0 | 0 | 24.1 | 30.6 | 0.00 | 0.00 | 0.00 | 63 | 813.0 |
| 20260503180912 | 0 | 2 | 25.7 | 30.6 | 0.00 | 0.00 | 0.00 | 62 | 813.0 |
| 20260503180802 | 0 | 2 | 25.7 | 30.6 | 0.00 | 0.00 | 0.00 | 62 | 813.0 |
| 20260503180652 | 0 | 4 | 29.0 | 35.4 | 0.00 | 0.00 | 0.00 | 62 | 813.0 |
| 20260503180542 | 0 | 4 | 29.0 | 33.8 | 0.00 | 0.00 | 0.00 | 62 | 813.0 |
| 20260503180432 | 0 | 3 | 30.6 | 35.4 | 0.00 | 0.00 | 0.00 | 63 | 813.0 |
| 20260503180322 | 0 | 2 | 27.4 | 35.4 | 0.00 | 0.00 | 0.00 | 63 | 813.0 |
| 20260503180212 | 0 | 4 | 25.7 | 30.6 | 0.00 | 0.00 | 0.00 | 63 | 813.0 |
| 20260503175952 | 0 | 3 | 27.4 | 33.8 | 0.00 | 0.00 | 0.00 | 63 | 813.0 |
| 20260503175842 | 0 | 8 | 25.7 | 33.8 | 0.00 | 0.00 | 0.00 | 64 | 813.0 |
| 20260503175732 | 0 | 6 | 29.0 | 33.8 | 0.00 | 0.00 | 0.00 | 64 | 813.0 |
| 20260503175622 | 0 | 8 | 29.0 | 35.4 | 0.00 | 0.00 | 0.00 | 64 | 813.0 |
| 20260503175512 | 0 | 12 | 29.0 | 37.0 | 0.00 | 0.00 | 0.00 | 64 | 812.9 |
| 20260503175402 | 0 | 13 | 30.6 | 37.0 | 0.00 | 0.00 | 0.00 | 64 | 812.9 |
| 20260503175252 | 0 | 12 | 30.6 | 37.0 | 0.00 | 0.00 | 0.00 | 64 | 812.9 |
| 20260503175032 | 0 | 10 | 29.0 | 35.4 | 0.00 | 0.00 | 0.00 | 64 | 812.9 |
| 20260503174922 | 0 | 11 | 27.4 | 33.8 | 0.00 | 0.00 | 0.00 | 64 | 813.0 |
| 20260503174812 | 0 | 10 | 29.0 | 35.4 | 0.00 | 0.00 | 0.00 | 64 | 813.0 |
| 20260503174702 | 0 | 13 | 32.2 | 38.6 | 0.00 | 0.00 | 0.00 | 64 | 812.9 |
| 20260503174552 | 0 | 12 | 29.0 | 37.0 | 0.00 | 0.00 | 0.00 | 64 | 812.9 |
| 20260503174332 | 0 | 10 | 32.2 | 38.6 | 0.00 | 0.00 | 0.00 | 65 | 812.9 |
| 20260503174222 | 0 | 13 | 25.7 | 35.4 | 0.00 | 0.00 | 0.00 | 64 | 812.9 |
| 20260503174112 | 0 | 11 | 24.1 | 30.6 | 0.00 | 0.00 | 0.00 | 64 | 813.0 |
| 20260503174002 | 0 | 9 | 30.6 | 37.0 | 0.00 | 0.00 | 0.00 | 64 | 812.9 |
| 20260503173852 | 0 | 11 | 29.0 | 37.0 | 0.00 | 0.00 | 0.00 | 64 | 813.0 |
| 20260503173632 | 0 | 9 | 30.6 | 37.0 | 0.00 | 0.00 | 0.00 | 64 | 812.9 |
| 20260503173412 | 0 | 13 | 27.4 | 33.8 | 0.00 | 0.00 | 0.00 | 64 | 812.9 |
| 20260503173302 | 0 | 11 | 25.7 | 32.2 | 0.00 | 0.00 | 0.00 | 64 | 813.0 |
| 20260503173152 | 0 | 11 | 30.6 | 37.0 | 0.00 | 0.00 | 0.00 | 64 | 812.9 |
| 20260503173042 | 0 | 13 | 25.7 | 32.2 | 0.00 | 0.00 | 0.00 | 64 | 813.0 |
| 20260503172932 | 0 | 11 | 30.6 | 37.0 | 0.00 | 0.00 | 0.00 | 64 | 812.9 |
| 20260503172712 | 0 | 13 | 30.6 | 40.2 | 0.00 | 0.00 | 0.00 | 64 | 812.9 |
| 20260503172602 | 0 | 15 | 27.4 | 37.0 | 0.00 | 0.00 | 0.00 | 64 | 812.9 |
| 20260503172452 | 0 | 15 | 29.0 | 37.0 | 0.00 | 0.00 | 0.00 | 63 | 812.9 |
| 20260503172342 | 0 | 8 | 24.1 | 32.2 | 0.00 | 0.00 | 0.00 | 64 | 812.9 |
| 20260503172232 | 0 | 11 | 27.4 | 35.4 | 0.00 | 0.00 | 0.00 | 63 | 813.0 |
| 20260503172122 | 0 | 16 | 24.1 | 33.8 | 0.00 | 0.00 | 0.00 | 63 | 812.9 |
| 20260503172012 | 0 | 16 | 24.1 | 32.2 | 0.00 | 0.00 | 0.00 | 63 | 812.9 |
| 20260503171902 | 0 | 17 | 27.4 | 32.2 | 0.00 | 0.00 | 0.00 | 63 | 812.9 |
| 20260503171642 | 0 | 16 | 25.7 | 32.2 | 0.00 | 0.00 | 0.00 | 63 | 813.0 |
| 20260503171422 | 0 | 17 | 22.5 | 30.6 | 0.00 | 0.00 | 0.00 | 64 | 813.0 |
| 20260503171312 | 0 | 14 | 27.4 | 32.2 | 0.00 | 0.00 | 0.00 | 64 | 812.9 |
| 20260503171202 | 0 | 14 | 27.4 | 32.2 | 0.00 | 0.00 | 0.00 | 64 | 812.9 |
| 20260503171052 | 0 | 12 | 22.5 | 32.2 | 0.00 | 0.00 | 0.00 | 64 | 813.0 |
| 20260503170942 | 0 | 13 | 27.4 | 33.8 | 0.00 | 0.00 | 0.00 | 64 | 813.0 |
| 20260503170832 | 0 | 15 | 27.4 | 32.2 | 0.00 | 0.00 | 0.00 | 64 | 813.0 |
| 20260503170722 | 0 | 16 | 24.1 | 30.6 | 0.00 | 0.00 | 0.00 | 64 | 813.0 |
| 20260503170612 | 0 | 13 | 24.1 | 29.0 | 0.00 | 0.00 | 0.00 | 64 | 813.0 |
| 20260503170501 | 0 | 10 | 27.4 | 32.2 | 0.00 | 0.00 | 0.00 | 64 | 813.0 |
| 20260503170352 | 0 | 10 | 25.7 | 30.6 | 0.00 | 0.00 | 0.00 | 64 | 813.0 |
| 20260503170242 | 0 | 8 | 25.7 | 32.2 | 0.00 | 0.00 | 0.00 | 64 | 813.0 |
| 20260503170132 | 0 | 6 | 24.1 | 29.0 | 0.00 | 0.00 | 0.00 | 64 | 813.0 |
| 20260503160201 | 0 | 31 | 19.3 | 29.0 | 0.00 | 0.00 | 0.00 | 58 | 812.9 |
| 20260503150932 | 1 | 14 | 29.0 | 49.9 | 0.00 | 0.00 | 0.00 | 52 | 812.9 |
| 20260503150822 | 1 | 15 | 30.6 | 45.1 | 0.00 | 0.00 | 0.00 | 51 | 812.6 |
| 20260503150602 | 1 | 57 | 33.8 | 41.8 | 0.00 | 0.00 | 0.00 | 49 | 812.9 |
| 20260503150451 | 1 | 46 | 41.8 | 53.1 | 0.00 | 0.00 | 0.00 | 52 | 812.6 |
| 20260503150341 | 1 | 20 | 24.1 | 43.5 | 0.00 | 0.00 | 0.00 | 52 | 812.7 |
| 20260503150121 | 1 | 35 | 37.0 | 46.7 | 0.00 | 0.00 | 0.00 | 50 | 812.7 |
| 20260503140301 | 0 | 38 | 33.8 | 41.8 | 0.00 | 0.00 | 0.00 | 48 | 813.3 |
| 20260503140151 | 0 | 41 | 33.8 | 43.5 | 0.00 | 0.00 | 0.00 | 48 | 813.1 |
| 20260503131252 | 0 | 32 | 12.9 | 22.5 | 0.00 | 0.00 | 0.00 | 59 | 813.8 |
| 20260503131141 | 0 | 358 | 11.3 | 16.1 | 0.00 | 0.00 | 0.00 | 58 | 813.8 |
| 20260503131031 | 0 | 350 | 11.3 | 16.1 | 0.00 | 0.00 | 0.00 | 57 | 813.8 |
| 20260503130921 | 0 | 347 | 16.1 | 20.9 | 0.00 | 0.00 | 0.00 | 62 | 813.8 |
| 20260503130812 | 0 | 12 | 14.5 | 22.5 | 0.00 | 0.00 | 0.00 | 58 | 813.8 |
| 20260503130701 | 0 | 28 | 17.7 | 29.0 | 0.00 | 0.00 | 0.00 | 58 | 813.8 |
| 20260503130551 | 0 | 21 | 17.7 | 30.6 | 0.00 | 0.00 | 0.00 | 58 | 813.8 |
| 20260503130441 | 0 | 18 | 20.9 | 30.6 | 0.00 | 0.00 | 0.00 | 65 | 813.8 |
| 20260503130331 | 0 | 3 | 17.7 | 27.4 | 0.00 | 0.00 | 0.00 | 64 | 813.8 |
| 20260503130221 | 0 | 5 | 17.7 | 22.5 | 0.00 | 0.00 | 0.00 | 60 | 813.8 |
| 20260503120141 | 0 | 51 | 20.9 | 24.1 | 0.00 | 0.00 | 0.00 | 60 | 813.9 |
| 20260503110651 | -1 | 22 | 16.1 | 22.5 | 0.00 | 0.00 | 0.00 | 65 | 814.2 |
| 20260503110431 | 0 | 34 | 24.1 | 32.2 | 0.00 | 0.00 | 0.00 | 67 | 814.2 |
| 20260503110321 | 0 | 38 | 16.1 | 20.9 | 0.00 | 0.00 | 0.00 | 67 | 814.2 |
| 20260503110211 | 0 | 16 | 20.9 | 27.4 | 0.00 | 0.00 | 0.00 | 70 | 814.2 |
| 20260503100241 | -1 | 45 | 27.4 | 38.6 | 0.00 | 0.00 | 0.00 | 67 | 814.2 |
| 20260503100131 | -1 | 42 | 14.5 | 33.8 | 0.00 | 0.00 | 0.00 | 66 | 814.3 |
| 20260503090421 | -2 | 27 | 12.9 | 20.9 | 0.00 | 0.00 | 0.00 | 70 | 814.2 |
| 20260503090201 | -2 | 60 | 12.9 | 22.5 | 0.00 | 0.00 | 0.00 | 70 | 814.2 |
| 20260503081631 | -3 | 38 | 20.9 | 27.4 | 0.00 | 0.00 | 0.00 | 71 | 813.8 |
| 20260503081521 | -3 | 46 | 27.4 | 33.8 | 0.00 | 0.00 | 0.00 | 74 | 813.8 |
| 20260503081411 | -3 | 23 | 17.7 | 29.0 | 0.00 | 0.00 | 0.00 | 76 | 813.8 |
| 20260503081301 | -3 | 35 | 17.7 | 29.0 | 0.00 | 0.00 | 0.00 | 76 | 813.8 |
| 20260503081151 | -3 | 20 | 16.1 | 24.1 | 0.00 | 0.00 | 0.00 | 76 | 813.8 |
| 20260503080821 | -3 | 39 | 24.1 | 32.2 | 0.00 | 0.00 | 0.00 | 74 | 813.8 |
| 20260503080711 | -3 | 42 | 20.9 | 29.0 | 0.00 | 0.00 | 0.00 | 74 | 813.8 |
| 20260503080601 | -2 | 53 | 16.1 | 20.9 | 0.00 | 0.00 | 0.00 | 74 | 813.8 |
| 20260503080451 | -2 | 101 | 19.3 | 30.6 | 0.00 | 0.00 | 0.00 | 76 | 813.9 |
| 20260503080341 | -3 | 87 | 14.5 | 22.5 | 0.00 | 0.00 | 0.00 | 77 | 813.8 |
| 20260503080231 | -3 | 79 | 14.5 | 20.9 | 0.00 | 0.00 | 0.00 | 76 | 813.8 |
| 20260503080120 | -3 | 31 | 12.9 | 22.5 | 0.00 | 0.00 | 0.00 | 75 | 813.9 |
| 20260503072731 | -3 | 46 | 16.1 | 24.1 | 0.00 | 0.00 | 0.00 | 76 | 813.7 |
| 20260503072621 | -3 | 55 | 19.3 | 25.7 | 0.00 | 0.00 | 0.00 | 76 | 813.7 |
| 20260503072512 | -3 | 67 | 19.3 | 24.1 | 0.00 | 0.00 | 0.00 | 76 | 813.7 |
| 20260503072401 | -3 | 65 | 17.7 | 20.9 | 0.00 | 0.00 | 0.00 | 76 | 813.7 |
| 20260503072251 | -4 | 50 | 19.3 | 24.1 | 0.00 | 0.00 | 0.00 | 76 | 813.5 |
| 20260503072141 | -4 | 69 | 17.7 | 22.5 | 0.00 | 0.00 | 0.00 | 76 | 813.5 |
| 20260503072031 | -4 | 67 | 20.9 | 29.0 | 0.00 | 0.00 | 0.00 | 75 | 813.5 |
| 20260503071921 | -4 | 62 | 24.1 | 30.6 | 0.00 | 0.00 | 0.00 | 76 | 813.5 |
| 20260503071700 | -4 | 94 | 17.7 | 25.7 | 0.00 | 0.00 | 0.00 | 76 | 813.7 |
| 20260503071551 | -4 | 83 | 19.3 | 29.0 | 0.00 | 0.00 | 0.00 | 77 | 813.5 |
| 20260503071440 | -4 | 75 | 19.3 | 25.7 | 0.00 | 0.00 | 0.00 | 77 | 813.5 |
| 20260503071331 | -3 | 90 | 17.7 | 27.4 | 0.00 | 0.00 | 0.00 | 78 | 813.5 |
| 20260503071221 | -4 | 91 | 20.9 | 27.4 | 0.00 | 0.00 | 0.00 | 79 | 813.7 |
| 20260503071111 | -4 | 83 | 24.1 | 33.8 | 0.00 | 0.00 | 0.00 | 80 | 813.4 |
| 20260503071001 | -4 | 58 | 22.5 | 30.6 | 0.00 | 0.00 | 0.00 | 79 | 813.4 |
| 20260503070741 | -4 | 55 | 17.7 | 22.5 | 0.00 | 0.00 | 0.00 | 79 | 813.5 |
| 20260503070631 | -4 | 59 | 17.7 | 20.9 | 0.00 | 0.00 | 0.00 | 80 | 813.5 |
| 20260503070411 | -4 | 52 | 24.1 | 35.4 | 0.00 | 0.00 | 0.00 | 80 | 813.4 |
| 20260503070300 | -4 | 67 | 19.3 | 27.4 | 0.00 | 0.00 | 0.00 | 79 | 813.4 |
| 20260503060331 | -5 | 70 | 27.4 | 33.8 | 0.00 | 0.00 | 0.00 | 76 | 813.0 |
| 20260503060111 | -5 | 65 | 33.8 | 40.2 | 0.00 | 0.00 | 0.00 | 76 | 812.9 |
| 20260503055040 | -5 | 47 | 40.2 | 51.5 | 0.00 | 0.00 | 0.00 | 76 | 812.6 |
| 20260503054820 | -5 | 60 | 35.4 | 45.1 | 0.00 | 0.00 | 0.00 | 76 | 812.9 |
| 20260503054711 | -5 | 59 | 33.8 | 43.5 | 0.00 | 0.00 | 0.00 | 75 | 812.6 |
| 20260503054601 | -5 | 55 | 37.0 | 46.7 | 0.00 | 0.00 | 0.00 | 76 | 812.6 |
| 20260503054450 | -5 | 79 | 24.1 | 30.6 | 0.00 | 0.00 | 0.00 | 75 | 812.9 |
| 20260503054340 | -5 | 82 | 30.6 | 43.5 | 0.00 | 0.00 | 0.00 | 77 | 812.7 |
| 20260503054230 | -5 | 78 | 27.4 | 38.6 | 0.00 | 0.00 | 0.00 | 77 | 812.9 |
| 20260503054121 | -5 | 79 | 29.0 | 43.5 | 0.00 | 0.00 | 0.00 | 77 | 813.0 |
| 20260503053750 | -5 | 99 | 24.1 | 33.8 | 0.00 | 0.00 | 0.00 | 78 | 813.0 |
| 20260503053530 | -5 | 80 | 24.1 | 32.2 | 0.00 | 0.00 | 0.00 | 78 | 812.9 |
| 20260503053311 | -5 | 105 | 29.0 | 41.8 | 0.00 | 0.00 | 0.00 | 78 | 812.9 |
| 20260503053201 | -5 | 99 | 33.8 | 46.7 | 0.00 | 0.00 | 0.00 | 78 | 812.7 |
| 20260503053050 | -5 | 87 | 35.4 | 45.1 | 0.00 | 0.00 | 0.00 | 77 | 812.7 |
| 20260503052941 | -5 | 92 | 37.0 | 48.3 | 0.00 | 0.00 | 0.00 | 77 | 812.7 |
| 20260503052720 | -5 | 83 | 32.2 | 40.2 | 0.00 | 0.00 | 0.00 | 80 | 812.7 |
| 20260503052611 | -5 | 83 | 30.6 | 40.2 | 0.00 | 0.00 | 0.00 | 80 | 812.7 |
| 20260503052351 | -5 | 84 | 35.4 | 45.1 | 0.00 | 0.00 | 0.00 | 78 | 812.6 |
| 20260503052240 | -5 | 82 | 35.4 | 43.5 | 0.00 | 0.00 | 0.00 | 79 | 812.6 |
| 20260503052020 | -5 | 93 | 40.2 | 46.7 | 0.00 | 0.00 | 0.00 | 80 | 812.6 |
| 20260503051911 | -5 | 84 | 33.8 | 51.5 | 0.00 | 0.00 | 0.00 | 80 | 812.7 |
| 20260503051801 | -5 | 91 | 37.0 | 48.3 | 0.00 | 0.00 | 0.00 | 80 | 812.6 |
| 20260503051541 | -5 | 88 | 37.0 | 54.7 | 0.00 | 0.00 | 0.00 | 81 | 812.6 |
| 20260503051430 | -5 | 89 | 37.0 | 53.1 | 0.00 | 0.00 | 0.00 | 79 | 812.5 |
| 20260503051321 | -5 | 80 | 38.6 | 46.7 | 0.00 | 0.00 | 0.00 | 79 | 812.5 |
| 20260503051211 | -5 | 92 | 35.4 | 46.7 | 0.00 | 0.00 | 0.00 | 81 | 812.6 |
| 20260503050951 | -5 | 87 | 37.0 | 48.3 | 0.00 | 0.00 | 0.00 | 81 | 812.5 |
| 20260503050841 | -5 | 83 | 38.6 | 51.5 | 0.00 | 0.00 | 0.00 | 80 | 812.3 |
| 20260503050730 | -5 | 81 | 37.0 | 43.5 | 0.00 | 0.00 | 0.00 | 82 | 812.5 |
| 20260503050620 | -5 | 87 | 37.0 | 49.9 | 0.00 | 0.00 | 0.00 | 82 | 812.6 |
| 20260503050510 | -5 | 88 | 37.0 | 45.1 | 0.00 | 0.00 | 0.00 | 82 | 812.6 |
| 20260503050401 | -5 | 84 | 35.4 | 49.9 | 0.00 | 0.00 | 0.00 | 82 | 812.5 |
| 20260503050250 | -5 | 83 | 33.8 | 41.8 | 0.00 | 0.00 | 0.00 | 81 | 812.6 |
| 20260503050141 | -5 | 90 | 33.8 | 43.5 | 0.00 | 0.00 | 0.00 | 81 | 812.6 |
| 20260503050031 | -5 | 96 | 33.8 | 43.5 | 0.00 | 0.00 | 0.00 | 82 | 812.6 |
| 20260503045811 | -5 | 88 | 35.4 | 46.7 | 0.00 | 0.00 | 0.00 | 82 | 812.5 |
| 20260503045700 | -5 | 94 | 35.4 | 43.5 | 0.00 | 0.00 | 0.00 | 81 | 812.5 |
| 20260503045440 | -5 | 88 | 35.4 | 49.9 | 0.00 | 0.00 | 0.00 | 83 | 812.6 |
| 20260503045331 | -5 | 90 | 35.4 | 46.7 | 0.00 | 0.00 | 0.00 | 84 | 812.5 |
| 20260503045220 | -5 | 87 | 35.4 | 45.1 | 0.00 | 0.00 | 0.00 | 83 | 812.5 |
| 20260503045001 | -6 | 93 | 32.2 | 43.5 | 0.00 | 0.00 | 0.00 | 83 | 812.5 |
| 20260503044741 | -6 | 95 | 35.4 | 49.9 | 0.00 | 0.00 | 0.00 | 82 | 812.3 |
| 20260503044630 | -6 | 87 | 33.8 | 43.5 | 0.00 | 0.00 | 0.00 | 83 | 812.3 |
| 20260503044520 | -6 | 88 | 37.0 | 49.9 | 0.00 | 0.00 | 0.00 | 83 | 812.3 |
| 20260503044150 | -6 | 86 | 33.8 | 43.5 | 0.00 | 0.00 | 0.00 | 83 | 812.6 |
| 20260503044040 | -6 | 87 | 35.4 | 46.7 | 0.00 | 0.00 | 0.00 | 83 | 812.3 |
| 20260503043930 | -6 | 86 | 35.4 | 45.1 | 0.00 | 0.00 | 0.00 | 86 | 812.3 |
| 20260503043821 | -6 | 93 | 35.4 | 43.5 | 0.00 | 0.00 | 0.00 | 83 | 812.5 |
| 20260503043711 | -6 | 90 | 35.4 | 43.5 | 0.00 | 0.00 | 0.00 | 84 | 812.2 |
| 20260503043601 | -6 | 97 | 33.8 | 45.1 | 0.00 | 0.00 | 0.00 | 86 | 812.3 |
| 20260503043450 | -6 | 84 | 35.4 | 41.8 | 0.00 | 0.00 | 0.00 | 86 | 812.2 |
| 20260503043340 | -6 | 96 | 37.0 | 51.5 | 0.00 | 0.00 | 0.00 | 85 | 812.2 |
| 20260503043230 | -6 | 89 | 37.0 | 46.7 | 0.00 | 0.00 | 0.00 | 85 | 812.2 |
| 20260503043010 | -6 | 89 | 35.4 | 46.7 | 0.00 | 0.00 | 0.00 | 86 | 812.2 |
| 20260503042901 | -6 | 89 | 37.0 | 46.7 | 0.00 | 0.00 | 0.00 | 87 | 812.2 |
| 20260503042750 | -6 | 88 | 38.6 | 45.1 | 0.00 | 0.00 | 0.00 | 88 | 812.2 |
| 20260503042530 | -6 | 87 | 37.0 | 48.3 | 0.00 | 0.00 | 0.00 | 86 | 812.2 |
| 20260503042421 | -6 | 83 | 33.8 | 40.2 | 0.00 | 0.00 | 0.00 | 85 | 812.2 |
| 20260503042310 | -6 | 88 | 38.6 | 46.7 | 0.00 | 0.00 | 0.00 | 86 | 812.2 |
| 20260503042200 | -6 | 85 | 38.6 | 51.5 | 0.00 | 0.00 | 0.00 | 86 | 812.2 |
| 20260503041941 | -6 | 86 | 38.6 | 48.3 | 0.00 | 0.00 | 0.00 | 86 | 812.2 |
| 20260503041720 | -6 | 85 | 38.6 | 48.3 | 0.00 | 0.00 | 0.00 | 87 | 812.2 |
| 20260503041500 | -6 | 91 | 33.8 | 49.9 | 0.00 | 0.00 | 0.00 | 86 | 812.2 |
| 20260503041240 | -6 | 83 | 33.8 | 53.1 | 0.00 | 0.00 | 0.00 | 87 | 812.2 |
| 20260503041130 | -6 | 81 | 35.4 | 41.8 | 0.00 | 0.00 | 0.00 | 87 | 812.2 |
| 20260503041020 | -6 | 90 | 37.0 | 45.1 | 0.00 | 0.00 | 0.00 | 88 | 812.2 |
| 20260503040910 | -6 | 92 | 38.6 | 51.5 | 0.00 | 0.00 | 0.00 | 88 | 812.1 |
| 20260503040800 | -6 | 87 | 35.4 | 41.8 | 0.00 | 0.00 | 0.00 | 89 | 812.2 |
| 20260503040650 | -6 | 91 | 35.4 | 49.9 | 0.00 | 0.00 | 0.00 | 90 | 812.1 |
| 20260503040540 | -6 | 91 | 38.6 | 51.5 | 0.00 | 0.00 | 0.00 | 90 | 812.2 |
| 20260503040431 | -6 | 102 | 37.0 | 53.1 | 0.00 | 0.00 | 0.00 | 90 | 812.2 |
| 20260503040210 | -6 | 81 | 33.8 | 45.1 | 0.00 | 0.00 | 0.00 | 92 | 812.2 |
| 20260503040100 | -6 | 90 | 35.4 | 49.9 | 0.00 | 0.00 | 0.00 | 92 | 812.1 |
| 20260503035950 | -6 | 99 | 33.8 | 48.3 | 0.00 | 0.00 | 0.00 | 91 | 812.1 |
| 20260503035841 | -6 | 97 | 35.4 | 56.3 | 0.00 | 0.00 | 0.00 | 91 | 812.1 |
| 20260503035730 | -6 | 93 | 35.4 | 51.5 | 0.00 | 0.00 | 0.00 | 92 | 812.2 |
| 20260503035620 | -6 | 94 | 35.4 | 49.9 | 0.00 | 0.00 | 0.00 | 92 | 812.1 |
| 20260503035510 | -6 | 86 | 35.4 | 46.7 | 0.00 | 0.00 | 0.00 | 92 | 811.8 |
| 20260503035401 | -6 | 97 | 38.6 | 51.5 | 0.00 | 0.00 | 0.00 | 92 | 812.1 |
| 20260503035250 | -6 | 81 | 37.0 | 46.7 | 0.00 | 0.00 | 0.00 | 92 | 811.8 |
| 20260503035140 | -6 | 87 | 33.8 | 48.3 | 0.00 | 0.00 | 0.00 | 93 | 812.1 |
| 20260503035031 | -6 | 84 | 38.6 | 53.1 | 0.00 | 0.00 | 0.00 | 94 | 812.1 |
| 20260503034920 | -6 | 87 | 35.4 | 49.9 | 0.00 | 0.00 | 0.00 | 93 | 812.1 |
| 20260503034810 | -6 | 88 | 33.8 | 51.5 | 0.00 | 0.00 | 0.00 | 93 | 812.1 |
| 20260503034700 | -6 | 92 | 32.2 | 46.7 | 0.00 | 0.00 | 0.00 | 93 | 812.1 |
| 20260503034550 | -6 | 79 | 33.8 | 43.5 | 0.00 | 0.00 | 0.00 | 93 | 812.1 |
| 20260503034441 | -6 | 95 | 32.2 | 41.8 | 0.00 | 0.00 | 0.00 | 94 | 812.1 |
| 20260503034331 | -6 | 108 | 33.8 | 51.5 | 0.00 | 0.00 | 0.00 | 94 | 812.1 |
| 20260503034110 | -6 | 83 | 33.8 | 51.5 | 0.00 | 0.00 | 0.00 | 93 | 812.1 |
| 20260503034000 | -6 | 107 | 29.0 | 45.1 | 0.00 | 0.00 | 0.00 | 93 | 812.1 |
| 20260503033740 | -6 | 88 | 33.8 | 46.7 | 0.00 | 0.00 | 0.00 | 94 | 811.9 |
| 20260503033630 | -6 | 96 | 33.8 | 49.9 | 0.00 | 0.00 | 0.00 | 94 | 812.1 |
| 20260503033520 | -6 | 88 | 37.0 | 45.1 | 0.00 | 0.00 | 0.00 | 94 | 811.8 |
| 20260503033410 | -6 | 95 | 37.0 | 46.7 | 0.00 | 0.00 | 0.00 | 94 | 812.1 |
| 20260503033300 | -6 | 82 | 37.0 | 43.5 | 0.00 | 0.00 | 0.00 | 95 | 811.8 |
| 20260503032931 | -6 | 103 | 40.2 | 51.5 | 0.00 | 0.00 | 0.00 | 95 | 812.1 |
| 20260503032820 | -6 | 72 | 35.4 | 41.8 | 0.00 | 0.00 | 0.00 | 95 | 811.8 |
| 20260503032710 | -6 | 85 | 33.8 | 40.2 | 0.00 | 0.00 | 0.00 | 94 | 811.9 |
| 20260503032600 | -6 | 92 | 37.0 | 49.9 | 0.00 | 0.00 | 0.00 | 94 | 811.8 |
| 20260503032450 | -6 | 83 | 35.4 | 48.3 | 0.00 | 0.00 | 0.00 | 94 | 811.8 |
| 20260503032340 | -6 | 92 | 33.8 | 46.7 | 0.00 | 0.00 | 0.00 | 94 | 811.9 |
| 20260503032230 | -6 | 106 | 30.6 | 48.3 | 0.00 | 0.00 | 0.00 | 94 | 811.9 |
| 20260503032120 | -6 | 79 | 32.2 | 38.6 | 0.00 | 0.00 | 0.00 | 93 | 811.8 |
| 20260503032010 | -6 | 80 | 33.8 | 41.8 | 0.00 | 0.00 | 0.00 | 93 | 811.8 |
| 20260503031901 | -6 | 93 | 29.0 | 43.5 | 0.00 | 0.00 | 0.00 | 94 | 811.8 |
| 20260503031750 | -6 | 83 | 35.4 | 49.9 | 0.00 | 0.00 | 0.00 | 94 | 811.8 |
| 20260503031530 | -6 | 84 | 32.2 | 40.2 | 0.00 | 0.00 | 0.00 | 94 | 812.1 |
| 20260503031420 | -6 | 86 | 32.2 | 45.1 | 0.00 | 0.00 | 0.00 | 93 | 811.9 |
| 20260503031311 | -6 | 93 | 33.8 | 49.9 | 0.00 | 0.00 | 0.00 | 93 | 811.9 |
| 20260503031200 | -6 | 94 | 35.4 | 51.5 | 0.00 | 0.00 | 0.00 | 93 | 812.1 |
| 20260503030940 | -6 | 88 | 35.4 | 43.5 | 0.00 | 0.00 | 0.00 | 92 | 811.8 |
| 20260503030830 | -6 | 91 | 37.0 | 46.7 | 0.00 | 0.00 | 0.00 | 94 | 811.8 |
| 20260503030720 | -6 | 90 | 37.0 | 48.3 | 0.00 | 0.00 | 0.00 | 95 | 811.9 |
| 20260503030610 | -6 | 91 | 37.0 | 54.7 | 0.00 | 0.00 | 0.00 | 94 | 811.8 |
| 20260503030500 | -6 | 89 | 35.4 | 53.1 | 0.00 | 0.00 | 0.00 | 94 | 811.8 |
| 20260503030351 | -6 | 95 | 38.6 | 49.9 | 0.00 | 0.00 | 0.00 | 94 | 811.8 |
| 20260503030240 | -6 | 90 | 33.8 | 46.7 | 0.00 | 0.00 | 0.00 | 94 | 811.8 |
| 20260503030130 | -6 | 89 | 37.0 | 45.1 | 0.00 | 0.00 | 0.00 | 95 | 811.8 |
| 20260503025910 | -6 | 90 | 33.8 | 43.5 | 0.00 | 0.00 | 0.00 | 95 | 811.8 |
| 20260503025801 | -6 | 97 | 33.8 | 49.9 | 0.00 | 0.00 | 0.00 | 95 | 811.9 |
| 20260503025540 | -6 | 100 | 33.8 | 53.1 | 0.00 | 0.00 | 0.00 | 95 | 811.8 |
| 20260503025430 | -6 | 90 | 37.0 | 53.1 | 0.00 | 0.00 | 0.00 | 94 | 811.8 |
| 20260503025320 | -6 | 88 | 33.8 | 53.1 | 0.00 | 0.00 | 0.00 | 95 | 811.9 |
| 20260503025210 | -6 | 91 | 35.4 | 45.1 | 0.00 | 0.00 | 0.00 | 96 | 811.8 |
| 20260503025100 | -6 | 94 | 37.0 | 49.9 | 0.00 | 0.00 | 0.00 | 95 | 811.8 |
| 20260503024950 | -6 | 95 | 37.0 | 48.3 | 0.00 | 0.00 | 0.00 | 94 | 811.8 |
| 20260503024840 | -6 | 92 | 37.0 | 54.7 | 0.00 | 0.00 | 0.00 | 95 | 811.8 |
| 20260503024730 | -6 | 85 | 37.0 | 48.3 | 0.00 | 0.00 | 0.00 | 94 | 811.7 |
| 20260503024620 | -6 | 90 | 33.8 | 43.5 | 0.00 | 0.00 | 0.00 | 94 | 811.7 |
| 20260503024510 | -6 | 88 | 38.6 | 51.5 | 0.00 | 0.00 | 0.00 | 95 | 811.7 |
| 20260503024250 | -6 | 86 | 38.6 | 48.3 | 0.00 | 0.00 | 0.00 | 95 | 811.7 |
| 20260503024030 | -6 | 86 | 32.2 | 49.9 | 0.00 | 0.00 | 0.00 | 97 | 811.8 |
| 20260503023811 | -6 | 79 | 37.0 | 45.1 | 0.00 | 0.00 | 0.00 | 96 | 811.5 |
| 20260503023701 | -6 | 94 | 35.4 | 45.1 | 0.00 | 0.00 | 0.00 | 96 | 811.8 |
| 20260503023550 | -6 | 93 | 32.2 | 43.5 | 0.00 | 0.00 | 0.00 | 95 | 811.8 |
| 20260503023440 | -6 | 91 | 32.2 | 46.7 | 0.00 | 0.00 | 0.00 | 95 | 811.8 |
| 20260503023330 | -6 | 98 | 38.6 | 51.5 | 0.00 | 0.00 | 0.00 | 95 | 811.8 |
| 20260503023220 | -6 | 92 | 35.4 | 48.3 | 0.00 | 0.00 | 0.00 | 95 | 811.8 |
| 20260503023110 | -6 | 84 | 35.4 | 48.3 | 0.00 | 0.00 | 0.00 | 94 | 811.8 |
| 20260503023001 | -6 | 92 | 33.8 | 46.7 | 0.00 | 0.00 | 0.00 | 94 | 811.8 |
| 20260503022742 | -6 | 91 | 38.6 | 53.1 | 0.00 | 0.00 | 0.00 | 94 | 811.8 |
| 20260503022520 | -6 | 92 | 35.4 | 45.1 | 0.00 | 0.00 | 0.00 | 94 | 811.8 |
| 20260503022410 | -6 | 91 | 37.0 | 49.9 | 0.00 | 0.00 | 0.00 | 94 | 811.8 |
| 20260503022300 | -6 | 87 | 33.8 | 41.8 | 0.00 | 0.00 | 0.00 | 94 | 811.8 |
| 20260503022150 | -6 | 99 | 37.0 | 53.1 | 0.00 | 0.00 | 0.00 | 93 | 811.8 |
| 20260503021931 | -6 | 93 | 33.8 | 48.3 | 0.00 | 0.00 | 0.00 | 93 | 811.8 |
| 20260503021711 | -6 | 85 | 38.6 | 51.5 | 0.00 | 0.00 | 0.00 | 93 | 811.8 |
| 20260503021600 | -6 | 97 | 40.2 | 56.3 | 0.00 | 0.00 | 0.00 | 93 | 811.8 |
| 20260503021450 | -6 | 94 | 35.4 | 46.7 | 0.00 | 0.00 | 0.00 | 93 | 811.8 |
| 20260503021340 | -6 | 87 | 38.6 | 53.1 | 0.00 | 0.00 | 0.00 | 93 | 811.8 |
| 20260503021230 | -6 | 95 | 38.6 | 53.1 | 0.00 | 0.00 | 0.00 | 92 | 811.8 |
| 20260503021121 | -6 | 103 | 40.2 | 57.9 | 0.00 | 0.00 | 0.00 | 92 | 811.8 |
| 20260503021011 | -6 | 91 | 35.4 | 45.1 | 0.00 | 0.00 | 0.00 | 93 | 811.8 |
| 20260503020901 | -6 | 83 | 38.6 | 48.3 | 0.00 | 0.00 | 0.00 | 92 | 811.8 |
| 20260503020750 | -6 | 89 | 40.2 | 49.9 | 0.00 | 0.00 | 0.00 | 92 | 811.8 |
| 20260503020530 | -6 | 89 | 41.8 | 56.3 | 0.00 | 0.00 | 0.00 | 92 | 811.7 |
| 20260503020420 | -6 | 92 | 41.8 | 49.9 | 0.00 | 0.00 | 0.00 | 92 | 811.7 |
| 20260503020310 | -6 | 92 | 43.5 | 51.5 | 0.00 | 0.00 | 0.00 | 92 | 811.8 |
| 20260503020201 | -6 | 98 | 43.5 | 51.5 | 0.00 | 0.00 | 0.00 | 93 | 811.8 |
| 20260503020050 | -6 | 91 | 43.5 | 56.3 | 0.00 | 0.00 | 0.00 | 93 | 811.8 |
| 20260503015942 | -6 | 98 | 41.8 | 56.3 | 0.00 | 0.00 | 0.00 | 93 | 811.8 |
| 20260503015721 | -6 | 90 | 43.5 | 49.9 | 0.00 | 0.00 | 0.00 | 93 | 811.8 |
| 20260503015500 | -6 | 93 | 43.5 | 54.7 | 0.00 | 0.00 | 0.00 | 93 | 811.8 |
| 20260503015350 | -6 | 92 | 43.5 | 53.1 | 0.00 | 0.00 | 0.00 | 93 | 811.7 |
| 20260503015240 | -6 | 90 | 38.6 | 61.2 | 0.00 | 0.00 | 0.00 | 93 | 811.7 |
| 20260503015131 | -6 | 95 | 41.8 | 56.3 | 0.00 | 0.00 | 0.00 | 93 | 811.8 |
| 20260503015020 | -6 | 95 | 40.2 | 57.9 | 0.00 | 0.00 | 0.00 | 93 | 811.9 |
| 20260503014910 | -6 | 97 | 41.8 | 54.7 | 0.00 | 0.00 | 0.00 | 93 | 812.1 |
| 20260503014800 | -6 | 94 | 41.8 | 57.9 | 0.00 | 0.00 | 0.00 | 93 | 811.8 |
| 20260503014651 | -6 | 94 | 43.5 | 54.7 | 0.00 | 0.00 | 0.00 | 94 | 811.8 |
| 20260503014540 | -6 | 95 | 40.2 | 51.5 | 0.00 | 0.00 | 0.00 | 94 | 811.8 |
| 20260503014321 | -6 | 110 | 38.6 | 59.5 | 0.00 | 0.00 | 0.00 | 93 | 811.8 |
| 20260503014100 | -6 | 91 | 40.2 | 49.9 | 0.00 | 0.00 | 0.00 | 94 | 811.8 |
| 20260503013951 | -6 | 92 | 41.8 | 48.3 | 0.00 | 0.00 | 0.00 | 96 | 811.8 |
| 20260503013840 | -6 | 94 | 45.1 | 56.3 | 0.00 | 0.00 | 0.00 | 96 | 811.9 |
| 20260503013620 | -6 | 88 | 43.5 | 54.7 | 0.00 | 0.00 | 0.00 | 96 | 811.7 |
| 20260503013511 | -6 | 84 | 41.8 | 59.5 | 0.00 | 0.00 | 0.00 | 96 | 811.7 |
| 20260503013406 | -6 | 92 | 38.6 | 59.5 | 0.00 | 0.00 | 0.00 | 96 | 811.8 |
| 20260503013250 | -6 | 90 | 43.5 | 56.3 | 0.00 | 0.00 | 0.00 | 96 | 811.8 |
| 20260503013144 | -6 | 85 | 40.2 | 56.3 | 0.00 | 0.00 | 0.00 | 96 | 811.8 |
| 20260503013030 | -6 | 87 | 41.8 | 49.9 | 0.00 | 0.00 | 0.00 | 96 | 811.8 |
| 20260503012920 | -6 | 88 | 40.2 | 53.1 | 0.00 | 0.00 | 0.00 | 97 | 811.8 |
| 20260503012811 | -6 | 86 | 41.8 | 54.7 | 0.00 | 0.00 | 0.00 | 97 | 811.8 |
| 20260503012700 | -6 | 92 | 40.2 | 56.3 | 0.00 | 0.00 | 0.00 | 96 | 811.8 |
| 20260503012550 | -6 | 86 | 40.2 | 51.5 | 0.00 | 0.00 | 0.00 | 96 | 811.8 |
| 20260503012330 | -6 | 89 | 40.2 | 54.7 | 0.00 | 0.00 | 0.00 | 97 | 811.8 |
| 20260503012221 | -6 | 95 | 35.4 | 48.3 | 0.00 | 0.00 | 0.00 | 96 | 811.9 |
| 20260503012110 | -6 | 85 | 33.8 | 45.1 | 0.00 | 0.00 | 0.00 | 96 | 811.8 |
| 20260503012000 | -6 | 98 | 30.6 | 54.7 | 0.00 | 0.00 | 0.00 | 96 | 811.9 |
| 20260503011851 | -6 | 91 | 37.0 | 49.9 | 0.00 | 0.00 | 0.00 | 97 | 811.9 |
| 20260503011740 | -6 | 103 | 32.2 | 48.3 | 0.00 | 0.00 | 0.00 | 97 | 811.8 |
| 20260503011630 | -6 | 79 | 38.6 | 51.5 | 0.00 | 0.00 | 0.00 | 97 | 811.8 |
| 20260503011520 | -6 | 79 | 33.8 | 45.1 | 0.00 | 0.00 | 0.00 | 97 | 811.8 |
| 20260503011300 | -6 | 70 | 35.4 | 41.8 | 0.00 | 0.00 | 0.00 | 97 | 811.8 |
| 20260503011150 | -6 | 88 | 33.8 | 45.1 | 0.00 | 0.00 | 0.00 | 96 | 811.7 |
| 20260503011040 | -6 | 90 | 35.4 | 53.1 | 0.00 | 0.00 | 0.00 | 96 | 812.1 |
| 20260503010930 | -6 | 85 | 33.8 | 53.1 | 0.00 | 0.00 | 0.00 | 96 | 811.9 |
| 20260503010823 | -6 | 87 | 33.8 | 49.9 | 0.00 | 0.00 | 0.00 | 96 | 812.1 |
| 20260503010710 | -6 | 93 | 33.8 | 53.1 | 0.00 | 0.00 | 0.00 | 96 | 812.1 |
| 20260503010600 | -6 | 82 | 33.8 | 43.5 | 0.00 | 0.00 | 0.00 | 97 | 811.8 |
| 20260503010230 | -6 | 87 | 37.0 | 40.2 | 0.00 | 0.00 | 0.00 | 97 | 811.8 |
| 20260503010010 | -6 | 93 | 37.0 | 51.5 | 0.00 | 0.00 | 0.00 | 96 | 812.1 |
| 20260503005900 | -6 | 92 | 37.0 | 49.9 | 0.00 | 0.00 | 0.00 | 96 | 811.8 |
| 20260503005750 | -6 | 93 | 41.8 | 53.1 | 0.00 | 0.00 | 0.00 | 96 | 811.8 |
| 20260503005640 | -6 | 95 | 40.2 | 59.5 | 0.00 | 0.00 | 0.00 | 96 | 811.7 |
| 20260503005310 | -6 | 88 | 41.8 | 53.1 | 0.00 | 0.00 | 0.00 | 97 | 811.8 |
| 20260503005200 | -6 | 93 | 43.5 | 59.5 | 0.00 | 0.00 | 0.00 | 97 | 811.8 |
| 20260503005050 | -6 | 93 | 41.8 | 56.3 | 0.00 | 0.00 | 0.00 | 97 | 811.8 |
| 20260503004940 | -6 | 88 | 45.1 | 59.5 | 0.00 | 0.00 | 0.00 | 97 | 811.8 |
| 20260503004720 | -6 | 90 | 41.8 | 59.5 | 0.00 | 0.00 | 0.00 | 98 | 811.8 |
| 20260503004500 | -6 | 85 | 45.1 | 54.7 | 0.00 | 0.00 | 0.00 | 98 | 811.8 |
| 20260503004350 | -6 | 89 | 45.1 | 54.7 | 0.00 | 0.00 | 0.00 | 98 | 811.8 |
| 20260503004240 | -6 | 88 | 46.7 | 57.9 | 0.00 | 0.00 | 0.00 | 98 | 811.5 |
| 20260503004130 | -6 | 84 | 46.7 | 56.3 | 0.00 | 0.00 | 0.00 | 98 | 811.8 |
| 20260503003910 | -6 | 83 | 48.3 | 54.7 | 0.00 | 0.00 | 0.00 | 98 | 811.4 |
| 20260503003800 | -6 | 91 | 46.7 | 62.8 | 0.00 | 0.00 | 0.00 | 98 | 811.8 |
| 20260503003541 | -6 | 87 | 43.5 | 64.4 | 0.00 | 0.00 | 0.00 | 98 | 811.7 |
| 20260503003430 | -6 | 87 | 45.1 | 53.1 | 0.00 | 0.00 | 0.00 | 98 | 811.7 |
| 20260503003320 | -6 | 87 | 43.5 | 49.9 | 0.00 | 0.00 | 0.00 | 99 | 811.8 |
| 20260503003100 | -6 | 90 | 46.7 | 54.7 | 0.00 | 0.00 | 0.00 | 99 | 811.8 |
| 20260503002950 | -6 | 86 | 45.1 | 56.3 | 0.00 | 0.00 | 0.00 | 99 | 811.8 |
| 20260503002840 | -6 | 85 | 40.2 | 46.7 | 0.00 | 0.00 | 0.00 | 98 | 811.8 |
| 20260503002730 | -6 | 90 | 45.1 | 53.1 | 0.00 | 0.00 | 0.00 | 98 | 811.8 |
| 20260503002620 | -6 | 86 | 40.2 | 51.5 | 0.00 | 0.00 | 0.00 | 98 | 811.8 |
| 20260503002510 | -6 | 99 | 41.8 | 56.3 | 0.00 | 0.00 | 0.00 | 98 | 811.8 |
| 20260503002400 | -6 | 95 | 41.8 | 59.5 | 0.00 | 0.00 | 0.00 | 98 | 811.8 |
| 20260503002141 | -6 | 84 | 38.6 | 46.7 | 0.00 | 0.00 | 0.00 | 99 | 811.8 |
| 20260503002030 | -6 | 86 | 41.8 | 53.1 | 0.00 | 0.00 | 0.00 | 98 | 811.9 |
| 20260503001920 | -6 | 97 | 37.0 | 45.1 | 0.00 | 0.00 | 0.00 | 98 | 812.2 |
| 20260503001811 | -6 | 97 | 38.6 | 54.7 | 0.00 | 0.00 | 0.00 | 98 | 811.8 |
| 20260503001700 | -6 | 97 | 38.6 | 48.3 | 0.00 | 0.00 | 0.00 | 98 | 811.9 |
| 20260503001550 | -6 | 96 | 40.2 | 54.7 | 0.00 | 0.00 | 0.00 | 98 | 812.1 |
| 20260503001440 | -6 | 90 | 38.6 | 48.3 | 0.00 | 0.00 | 0.00 | 99 | 812.1 |
| 20260503001220 | -6 | 99 | 38.6 | 49.9 | 0.00 | 0.00 | 0.00 | 99 | 812.1 |
| 20260503001110 | -6 | 105 | 37.0 | 53.1 | 0.00 | 0.00 | 0.00 | 99 | 812.2 |
| 20260503001000 | -6 | 98 | 35.4 | 54.7 | 0.00 | 0.00 | 0.00 | 99 | 812.1 |
| 20260503000850 | -6 | 95 | 40.2 | 46.7 | 0.00 | 0.00 | 0.00 | 99 | 812.2 |
| 20260503000740 | -6 | 96 | 43.5 | 51.5 | 0.00 | 0.00 | 0.00 | 99 | 812.2 |
| 20260503000632 | -6 | 91 | 38.6 | 53.1 | 0.00 | 0.00 | 0.00 | 99 | 811.9 |
| 20260503000520 | -6 | 95 | 45.1 | 56.3 | 0.00 | 0.00 | 0.00 | 99 | 811.9 |
| 20260503000301 | -6 | 92 | 43.5 | 54.7 | 0.00 | 0.00 | 0.00 | 99 | 812.1 |
| 20260503000151 | -6 | 105 | 45.1 | 69.2 | 0.00 | 0.00 | 0.00 | 99 | 811.8 |
| 20260503000041 | -6 | 91 | 46.7 | 61.2 | 0.00 | 0.00 | 0.00 | 10 | 811.8 |
| 20260502235820 | -6 | 90 | 43.5 | 54.7 | 0.00 | 0.00 | 0.00 | 10 | 811.8 |
| 20260502235710 | -6 | 92 | 45.1 | 59.5 | 0.00 | 0.00 | 0.00 | 10 | 811.8 |
| 20260502235600 | -6 | 95 | 43.5 | 61.2 | 0.00 | 0.00 | 0.00 | 10 | 811.8 |
| 20260502235230 | -6 | 90 | 45.1 | 56.3 | 0.00 | 0.00 | 0.00 | 10 | 812.1 |
| 20260502234901 | -6 | 89 | 41.8 | 56.3 | 0.00 | 0.00 | 0.00 | 10 | 811.8 |
| 20260502234640 | -6 | 109 | 37.0 | 54.7 | 0.00 | 0.00 | 0.00 | 10 | 812.2 |
| 20260502234531 | -6 | 98 | 43.5 | 62.8 | 0.00 | 0.00 | 0.00 | 10 | 811.7 |
| 20260502234420 | -6 | 97 | 41.8 | 62.8 | 0.00 | 0.00 | 0.00 | 10 | 812.1 |
| 20260502234310 | -6 | 86 | 43.5 | 53.1 | 0.00 | 0.00 | 0.00 | 10 | 811.9 |
| 20260502234200 | -6 | 85 | 48.3 | 59.5 | 0.00 | 0.00 | 0.00 | 10 | 811.7 |
| 20260502234050 | -6 | 92 | 48.3 | 61.2 | 0.00 | 0.00 | 0.00 | 10 | 811.8 |
| 20260502233940 | -6 | 88 | 48.3 | 57.9 | 0.00 | 0.00 | 0.00 | 10 | 811.8 |
| 20260502233830 | -6 | 91 | 43.5 | 54.7 | 0.00 | 0.00 | 0.00 | 10 | 812.1 |
| 20260502233720 | -6 | 88 | 40.2 | 46.7 | 0.00 | 0.00 | 0.00 | 10 | 811.9 |
| 20260502233610 | -6 | 94 | 41.8 | 61.2 | 0.00 | 0.00 | 0.00 | 10 | 811.8 |
| 20260502233500 | -6 | 85 | 32.2 | 41.8 | 0.00 | 0.00 | 0.00 | 10 | 811.8 |
| 20260502233350 | -6 | 80 | 33.8 | 46.7 | 0.00 | 0.00 | 0.00 | 10 | 811.8 |
| 20260502233240 | -6 | 93 | 30.6 | 46.7 | 0.00 | 0.00 | 0.00 | 10 | 811.8 |
| 20260502233130 | -6 | 79 | 33.8 | 51.5 | 0.00 | 0.00 | 0.00 | 10 | 811.8 |
| 20260502233020 | -6 | 75 | 35.4 | 43.5 | 0.00 | 0.00 | 0.00 | 10 | 811.8 |
| 20260502232910 | -6 | 74 | 37.0 | 45.1 | 0.00 | 0.00 | 0.00 | 10 | 811.8 |
| 20260502232800 | -6 | 78 | 30.6 | 46.7 | 0.00 | 0.00 | 0.00 | 10 | 811.8 |
| 20260502232650 | -6 | 75 | 33.8 | 41.8 | 0.00 | 0.00 | 0.00 | 10 | 811.9 |
| 20260502232540 | -6 | 70 | 37.0 | 45.1 | 0.00 | 0.00 | 0.00 | 10 | 812.2 |
| 20260502232430 | -6 | 71 | 35.4 | 49.9 | 0.00 | 0.00 | 0.00 | 10 | 812.2 |
| 20260502232320 | -6 | 77 | 29.0 | 45.1 | 0.00 | 0.00 | 0.00 | 10 | 812.1 |
| 20260502232210 | -6 | 73 | 30.6 | 41.8 | 0.00 | 0.00 | 0.00 | 10 | 812.2 |
| 20260502232100 | -6 | 70 | 33.8 | 45.1 | 0.00 | 0.00 | 0.00 | 10 | 812.1 |
| 20260502231950 | -6 | 70 | 35.4 | 41.8 | 0.00 | 0.00 | 0.00 | 10 | 811.9 |
| 20260502231840 | -6 | 71 | 37.0 | 46.7 | 0.00 | 0.00 | 0.00 | 10 | 811.8 |
| 20260502231510 | -6 | 75 | 30.6 | 38.6 | 0.00 | 0.00 | 0.00 | 10 | 812.1 |
| 20260502231400 | -6 | 93 | 24.1 | 46.7 | 0.00 | 0.00 | 0.00 | 10 | 812.2 |
| 20260502231250 | -6 | 75 | 29.0 | 38.6 | 0.00 | 0.00 | 0.00 | 10 | 812.2 |
| 20260502231140 | -6 | 71 | 35.4 | 43.5 | 0.00 | 0.00 | 0.00 | 10 | 811.8 |
| 20260502231030 | -6 | 80 | 27.4 | 40.2 | 0.00 | 0.00 | 0.00 | 10 | 811.8 |
| 20260502230920 | -6 | 72 | 33.8 | 43.5 | 0.00 | 0.00 | 0.00 | 10 | 812.2 |
| 20260502230700 | -6 | 73 | 25.7 | 32.2 | 0.00 | 0.00 | 0.00 | 10 | 812.3 |
| 20260502230550 | -6 | 80 | 19.3 | 30.6 | 0.00 | 0.00 | 0.00 | 10 | 812.5 |
| 20260502230440 | -6 | 73 | 25.7 | 33.8 | 0.00 | 0.00 | 0.00 | 10 | 812.5 |
| 20260502230330 | -6 | 74 | 25.7 | 37.0 | 0.00 | 0.00 | 0.00 | 10 | 812.5 |
| 20260502230220 | -6 | 73 | 27.4 | 40.2 | 0.00 | 0.00 | 0.00 | 10 | 812.3 |
| 20260502230110 | -6 | 76 | 25.7 | 35.4 | 0.00 | 0.00 | 0.00 | 10 | 812.2 |
| 20260502225850 | -6 | 75 | 24.1 | 32.2 | 0.00 | 0.00 | 0.00 | 10 | 812.6 |
| 20260502225740 | -6 | 91 | 16.1 | 24.1 | 0.00 | 0.00 | 0.00 | 10 | 812.7 |
| 20260502225631 | -6 | 121 | 11.3 | 19.3 | 0.00 | 0.00 | 0.00 | 10 | 812.9 |
| 20260502225520 | -6 | 86 | 12.9 | 19.3 | 0.00 | 0.00 | 0.00 | 10 | 812.7 |
| 20260502225411 | -6 | 97 | 12.9 | 25.7 | 0.00 | 0.00 | 0.00 | 10 | 812.9 |
| 20260502225300 | -6 | 83 | 14.5 | 24.1 | 0.00 | 0.00 | 0.00 | 10 | 812.7 |
| 20260502225152 | -6 | 105 | 14.5 | 22.5 | 0.00 | 0.00 | 0.00 | 10 | 812.7 |
| 20260502225044 | -6 | 78 | 16.1 | 29.0 | 0.00 | 0.00 | 0.00 | 10 | 812.7 |
| 20260502224823 | -6 | 129 | 11.3 | 25.7 | 0.00 | 0.00 | 0.00 | 10 | 812.9 |
| 20260502224710 | -6 | 142 | 11.3 | 19.3 | 0.00 | 0.00 | 0.00 | 10 | 812.9 |
| 20260502224603 | -6 | 152 | 16.1 | 33.8 | 0.00 | 0.00 | 0.00 | 10 | 812.7 |
| 20260502224450 | -6 | 155 | 14.5 | 30.6 | 0.00 | 0.00 | 0.00 | 10 | 812.9 |
| 20260502224340 | -6 | 151 | 12.9 | 30.6 | 0.00 | 0.00 | 0.00 | 10 | 813.0 |
| 20260502224230 | -6 | 87 | 16.1 | 29.0 | 0.00 | 0.00 | 0.00 | 10 | 813.0 |
| 20260502224121 | -6 | 115 | 12.9 | 29.0 | 0.00 | 0.00 | 0.00 | 10 | 812.7 |
| 20260502224010 | -6 | 160 | 9.7 | 25.7 | 0.00 | 0.00 | 0.00 | 10 | 812.9 |
| 20260502223750 | -6 | 145 | 9.7 | 20.9 | 0.00 | 0.00 | 0.00 | 10 | 813.0 |
| 20260502223640 | -6 | 144 | 9.7 | 19.3 | 0.00 | 0.00 | 0.00 | 10 | 812.9 |
| 20260502223420 | -6 | 87 | 11.3 | 17.7 | 0.00 | 0.00 | 0.00 | 10 | 812.9 |
| 20260502223310 | -6 | 119 | 11.3 | 24.1 | 0.00 | 0.00 | 0.00 | 10 | 813.0 |
| 20260502223200 | -6 | 103 | 12.9 | 29.0 | 0.00 | 0.00 | 0.00 | 10 | 812.9 |
| 20260502223050 | -6 | 101 | 12.9 | 22.5 | 0.00 | 0.00 | 0.00 | 10 | 812.9 |
| 20260502222940 | -6 | 86 | 12.9 | 24.1 | 0.00 | 0.00 | 0.00 | 10 | 812.9 |
| 20260502222351 | -6 | 126 | 9.7 | 24.1 | 0.00 | 0.00 | 0.00 | 10 | 812.9 |
| 20260502222242 | -6 | 137 | 9.7 | 19.3 | 0.00 | 0.00 | 0.00 | 10 | 812.9 |
| 20260502222020 | -6 | 151 | 11.3 | 19.3 | 0.00 | 0.00 | 0.00 | 10 | 813.0 |
| 20260502221910 | -5 | 141 | 11.3 | 24.1 | 0.00 | 0.00 | 0.00 | 10 | 813.0 |
| 20260502221801 | -5 | 107 | 11.3 | 17.7 | 0.00 | 0.00 | 0.00 | 10 | 812.9 |
| 20260502221542 | -6 | 143 | 11.3 | 25.7 | 0.00 | 0.00 | 0.00 | 10 | 813.0 |
| 20260502221320 | -6 | 151 | 9.7 | 20.9 | 0.00 | 0.00 | 0.00 | 10 | 813.0 |
| 20260502221210 | -6 | 155 | 9.7 | 22.5 | 0.00 | 0.00 | 0.00 | 10 | 813.0 |
| 20260502221100 | -6 | 184 | 12.9 | 25.7 | 0.00 | 0.00 | 0.00 | 10 | 813.0 |
| 20260502220953 | -6 | 140 | 11.3 | 19.3 | 0.00 | 0.00 | 0.00 | 10 | 813.0 |
| 20260502220840 | -6 | 154 | 11.3 | 20.9 | 0.00 | 0.00 | 0.00 | 10 | 813.1 |
| 20260502220730 | -6 | 132 | 12.9 | 32.2 | 0.00 | 0.00 | 0.00 | 10 | 813.0 |
| 20260502220620 | -6 | 186 | 11.3 | 27.4 | 0.00 | 0.00 | 0.00 | 10 | 812.9 |
| 20260502220510 | -6 | 169 | 11.3 | 24.1 | 0.00 | 0.00 | 0.00 | 10 | 813.0 |
| 20260502220400 | -6 | 137 | 12.9 | 27.4 | 0.00 | 0.00 | 0.00 | 10 | 813.0 |
| 20260502220250 | -6 | 148 | 11.3 | 27.4 | 0.00 | 0.00 | 0.00 | 10 | 813.0 |
| 20260502220140 | -6 | 111 | 11.3 | 19.3 | 0.00 | 0.00 | 0.00 | 10 | 813.0 |
| 20260502220030 | -6 | 183 | 12.9 | 29.0 | 0.00 | 0.00 | 0.00 | 10 | 813.0 |
| 20260502215920 | -5 | 117 | 16.1 | 29.0 | 0.00 | 0.00 | 0.00 | 10 | 813.0 |
| 20260502215700 | -5 | 127 | 12.9 | 25.7 | 0.00 | 0.00 | 0.00 | 10 | 813.0 |
| 20260502215550 | -5 | 122 | 12.9 | 20.9 | 0.00 | 0.00 | 0.00 | 10 | 813.0 |
| 20260502215440 | -5 | 173 | 14.5 | 27.4 | 0.00 | 0.00 | 0.00 | 10 | 813.0 |
| 20260502215330 | -5 | 160 | 12.9 | 37.0 | 0.00 | 0.00 | 0.00 | 10 | 813.1 |
| 20260502215228 | -5 | 121 | 12.9 | 19.3 | 0.00 | 0.00 | 0.00 | 10 | 813.0 |
| 20260502215110 | -5 | 117 | 12.9 | 22.5 | 0.00 | 0.00 | 0.00 | 10 | 813.0 |
| 20260502214850 | -5 | 152 | 9.7 | 19.3 | 0.00 | 0.00 | 0.00 | 10 | 813.0 |
| 20260502214740 | -5 | 158 | 11.3 | 25.7 | 0.00 | 0.00 | 0.00 | 10 | 813.1 |
| 20260502214633 | -5 | 164 | 9.7 | 19.3 | 0.00 | 0.00 | 0.00 | 10 | 813.1 |
| 20260502214521 | -5 | 124 | 11.3 | 29.0 | 0.00 | 0.00 | 0.00 | 10 | 813.0 |
| 20260502214300 | -5 | 115 | 12.9 | 25.7 | 0.00 | 0.00 | 0.00 | 10 | 813.0 |
| 20260502214150 | -5 | 149 | 11.3 | 20.9 | 0.00 | 0.00 | 0.00 | 10 | 813.0 |
| 20260502214040 | -5 | 128 | 12.9 | 24.1 | 0.00 | 0.00 | 0.00 | 10 | 813.0 |
| 20260502213930 | -6 | 122 | 12.9 | 27.4 | 0.00 | 0.00 | 0.00 | 10 | 813.1 |
| 20260502213820 | -6 | 140 | 11.3 | 19.3 | 0.00 | 0.00 | 0.00 | 10 | 813.1 |
| 20260502213600 | -6 | 158 | 11.3 | 27.4 | 0.00 | 0.00 | 0.00 | 10 | 813.0 |
| 20260502213450 | -6 | 133 | 11.3 | 19.3 | 0.00 | 0.00 | 0.00 | 10 | 813.1 |
| 20260502213340 | -6 | 166 | 14.5 | 46.7 | 0.00 | 0.00 | 0.00 | 10 | 813.0 |
| 20260502213230 | -6 | 155 | 14.5 | 37.0 | 0.00 | 0.00 | 0.00 | 10 | 813.1 |
| 20260502213121 | -5 | 168 | 14.5 | 41.8 | 0.00 | 0.00 | 0.00 | 10 | 813.0 |
| 20260502213010 | -6 | 170 | 14.5 | 30.6 | 0.00 | 0.00 | 0.00 | 10 | 813.0 |
| 20260502212900 | -5 | 151 | 12.9 | 30.6 | 0.00 | 0.00 | 0.00 | 10 | 813.0 |
| 20260502212751 | -5 | 169 | 11.3 | 20.9 | 0.00 | 0.00 | 0.00 | 10 | 813.3 |
| 20260502212641 | -5 | 130 | 12.9 | 43.5 | 0.00 | 0.00 | 0.00 | 10 | 813.1 |
| 20260502212530 | -5 | 180 | 17.7 | 33.8 | 0.00 | 0.00 | 0.00 | 10 | 813.0 |
| 20260502212427 | -5 | 120 | 12.9 | 29.0 | 0.00 | 0.00 | 0.00 | 10 | 813.0 |
| 20260502212311 | -5 | 120 | 14.5 | 25.7 | 0.00 | 0.00 | 0.00 | 10 | 813.0 |
| 20260502212200 | -5 | 142 | 12.9 | 22.5 | 0.00 | 0.00 | 0.00 | 10 | 813.0 |
| 20260502212050 | -5 | 173 | 11.3 | 25.7 | 0.00 | 0.00 | 0.00 | 10 | 813.0 |
| 20260502211948 | -5 | 98 | 16.1 | 24.1 | 0.00 | 0.00 | 0.00 | 10 | 813.0 |
| 20260502211720 | -5 | 126 | 16.1 | 27.4 | 0.00 | 0.00 | 0.00 | 10 | 813.0 |
| 20260502211610 | -5 | 144 | 14.5 | 29.0 | 0.00 | 0.00 | 0.00 | 10 | 813.3 |
| 20260502211500 | -5 | 128 | 14.5 | 25.7 | 0.00 | 0.00 | 0.00 | 10 | 813.0 |
| 20260502211350 | -5 | 116 | 16.1 | 29.0 | 0.00 | 0.00 | 0.00 | 10 | 813.0 |
| 20260502211240 | -5 | 141 | 16.1 | 27.4 | 0.00 | 0.00 | 0.00 | 10 | 813.0 |
| 20260502211021 | -5 | 150 | 11.3 | 29.0 | 0.00 | 0.00 | 0.00 | 10 | 813.0 |
| 20260502210910 | -5 | 110 | 14.5 | 27.4 | 0.00 | 0.00 | 0.00 | 10 | 813.0 |
| 20260502210650 | -5 | 193 | 12.9 | 22.5 | 0.00 | 0.00 | 0.00 | 10 | 813.1 |
| 20260502210430 | -5 | 156 | 11.3 | 30.6 | 0.00 | 0.00 | 0.00 | 10 | 813.1 |
| 20260502210320 | -5 | 157 | 11.3 | 20.9 | 0.00 | 0.00 | 0.00 | 10 | 813.3 |
| 20260502210213 | -5 | 132 | 11.3 | 19.3 | 0.00 | 0.00 | 0.00 | 10 | 813.1 |
| 20260502210100 | -5 | 119 | 12.9 | 20.9 | 0.00 | 0.00 | 0.00 | 10 | 813.0 |
| 20260502205950 | -5 | 165 | 12.9 | 24.1 | 0.00 | 0.00 | 0.00 | 10 | 813.3 |
| 20260502205841 | -5 | 125 | 14.5 | 22.5 | 0.00 | 0.00 | 0.00 | 10 | 813.1 |
| 20260502205730 | -5 | 125 | 12.9 | 24.1 | 0.00 | 0.00 | 0.00 | 10 | 813.3 |
| 20260502205401 | -5 | 93 | 16.1 | 24.1 | 0.00 | 0.00 | 0.00 | 10 | 813.3 |
| 20260502205250 | -5 | 87 | 14.5 | 19.3 | 0.00 | 0.00 | 0.00 | 10 | 813.3 |
| 20260502205030 | -5 | 128 | 11.3 | 19.3 | 0.00 | 0.00 | 0.00 | 10 | 813.3 |
| 20260502204920 | -5 | 119 | 11.3 | 22.5 | 0.00 | 0.00 | 0.00 | 10 | 813.3 |
| 20260502204810 | -5 | 173 | 12.9 | 27.4 | 0.00 | 0.00 | 0.00 | 10 | 813.3 |
| 20260502204700 | -5 | 150 | 12.9 | 25.7 | 0.00 | 0.00 | 0.00 | 10 | 813.1 |
| 20260502204442 | -5 | 115 | 14.5 | 27.4 | 0.00 | 0.00 | 0.00 | 10 | 813.1 |
| 20260502204330 | -5 | 110 | 12.9 | 24.1 | 0.00 | 0.00 | 0.00 | 10 | 813.1 |
| 20260502204220 | -5 | 189 | 11.3 | 24.1 | 0.00 | 0.00 | 0.00 | 10 | 813.3 |
| 20260502204114 | -5 | 126 | 14.5 | 25.7 | 0.00 | 0.00 | 0.00 | 10 | 813.0 |
| 20260502204001 | -5 | 118 | 14.5 | 25.7 | 0.00 | 0.00 | 0.00 | 10 | 813.0 |
| 20260502203850 | -5 | 104 | 16.1 | 30.6 | 0.00 | 0.00 | 0.00 | 10 | 813.0 |
| 20260502203741 | -5 | 94 | 16.1 | 24.1 | 0.00 | 0.00 | 0.00 | 10 | 813.0 |
| 20260502203630 | -5 | 85 | 17.7 | 24.1 | 0.00 | 0.00 | 0.00 | 10 | 813.0 |
| 20260502203525 | -5 | 82 | 17.7 | 30.6 | 0.00 | 0.00 | 0.00 | 10 | 813.0 |
| 20260502203410 | -5 | 104 | 12.9 | 24.1 | 0.00 | 0.00 | 0.00 | 10 | 813.0 |
| 20260502203301 | -5 | 150 | 12.9 | 24.1 | 0.00 | 0.00 | 0.00 | 10 | 813.3 |
| 20260502203151 | -5 | 153 | 12.9 | 24.1 | 0.00 | 0.00 | 0.00 | 10 | 813.1 |
| 20260502203043 | -5 | 111 | 16.1 | 32.2 | 0.00 | 0.00 | 0.00 | 10 | 813.1 |
| 20260502202930 | -5 | 105 | 16.1 | 24.1 | 0.00 | 0.00 | 0.00 | 10 | 813.0 |
| 20260502202823 | -5 | 85 | 17.7 | 29.0 | 0.00 | 0.00 | 0.00 | 10 | 813.0 |
| 20260502202710 | -5 | 96 | 16.1 | 24.1 | 0.00 | 0.00 | 0.00 | 10 | 813.0 |
| 20260502202600 | -5 | 87 | 19.3 | 25.7 | 0.00 | 0.00 | 0.00 | 10 | 813.1 |
| 20260502202450 | -5 | 123 | 12.9 | 25.7 | 0.00 | 0.00 | 0.00 | 10 | 813.1 |
| 20260502202120 | -5 | 89 | 17.7 | 27.4 | 0.00 | 0.00 | 0.00 | 10 | 813.0 |
| 20260502201750 | -5 | 159 | 11.3 | 27.4 | 0.00 | 0.00 | 0.00 | 10 | 813.3 |
| 20260502201640 | -5 | 135 | 17.7 | 32.2 | 0.00 | 0.00 | 0.00 | 10 | 813.1 |
| 20260502201530 | -5 | 102 | 14.5 | 22.5 | 0.00 | 0.00 | 0.00 | 10 | 813.1 |
| 20260502201310 | -5 | 171 | 11.3 | 25.7 | 0.00 | 0.00 | 0.00 | 10 | 813.3 |
| 20260502201200 | -5 | 143 | 11.3 | 27.4 | 0.00 | 0.00 | 0.00 | 10 | 813.1 |
| 20260502201050 | -5 | 170 | 12.9 | 22.5 | 0.00 | 0.00 | 0.00 | 10 | 813.3 |
| 20260502200940 | -5 | 131 | 16.1 | 27.4 | 0.00 | 0.00 | 0.00 | 10 | 813.3 |
| 20260502200830 | -5 | 113 | 17.7 | 25.7 | 0.00 | 0.00 | 0.00 | 10 | 813.1 |
| 20260502200610 | -5 | 111 | 11.3 | 25.7 | 0.00 | 0.00 | 0.00 | 10 | 813.3 |
| 20260502200502 | -5 | 85 | 17.7 | 25.7 | 0.00 | 0.00 | 0.00 | 10 | 813.0 |
| 20260502200350 | -5 | 126 | 12.9 | 20.9 | 0.00 | 0.00 | 0.00 | 10 | 813.1 |
| 20260502200240 | -5 | 156 | 12.9 | 22.5 | 0.00 | 0.00 | 0.00 | 10 | 813.1 |
| 20260502200130 | -5 | 104 | 16.1 | 27.4 | 0.00 | 0.00 | 0.00 | 10 | 813.3 |
| 20260502200020 | -5 | 165 | 14.5 | 25.7 | 0.00 | 0.00 | 0.00 | 10 | 813.1 |
| 20260502195910 | -5 | 105 | 16.1 | 27.4 | 0.00 | 0.00 | 0.00 | 10 | 813.3 |
| 20260502195801 | -5 | 97 | 14.5 | 24.1 | 0.00 | 0.00 | 0.00 | 10 | 813.3 |
| 20260502195650 | -5 | 132 | 14.5 | 27.4 | 0.00 | 0.00 | 0.00 | 10 | 813.3 |
| 20260502195540 | -5 | 139 | 11.3 | 24.1 | 0.00 | 0.00 | 0.00 | 10 | 813.3 |
| 20260502195320 | -5 | 88 | 19.3 | 29.0 | 0.00 | 0.00 | 0.00 | 10 | 813.3 |
| 20260502195210 | -5 | 132 | 12.9 | 22.5 | 0.00 | 0.00 | 0.00 | 10 | 813.4 |
| 20260502195100 | -5 | 102 | 14.5 | 24.1 | 0.00 | 0.00 | 0.00 | 10 | 813.3 |
| 20260502194950 | -5 | 103 | 14.5 | 25.7 | 0.00 | 0.00 | 0.00 | 10 | 813.3 |
| 20260502194840 | -5 | 90 | 17.7 | 25.7 | 0.00 | 0.00 | 0.00 | 10 | 813.3 |
| 20260502194730 | -5 | 79 | 24.1 | 33.8 | 0.00 | 0.00 | 0.00 | 10 | 813.0 |
| 20260502194620 | -5 | 93 | 16.1 | 24.1 | 0.00 | 0.00 | 0.00 | 10 | 813.1 |
| 20260502194510 | -5 | 82 | 20.9 | 30.6 | 0.00 | 0.00 | 0.00 | 10 | 813.0 |
| 20260502194250 | -5 | 116 | 17.7 | 33.8 | 0.00 | 0.00 | 0.00 | 10 | 813.1 |
| 20260502194140 | -5 | 132 | 16.1 | 27.4 | 0.00 | 0.00 | 0.00 | 10 | 813.1 |
| 20260502194030 | -5 | 83 | 24.1 | 32.2 | 0.00 | 0.00 | 0.00 | 10 | 813.1 |
| 20260502193920 | -5 | 171 | 11.3 | 24.1 | 0.00 | 0.00 | 0.00 | 10 | 813.3 |
| 20260502193810 | -5 | 77 | 22.5 | 30.6 | 0.00 | 0.00 | 0.00 | 10 | 813.0 |
| 20260502193700 | -5 | 128 | 12.9 | 24.1 | 0.00 | 0.00 | 0.00 | 10 | 813.3 |
| 20260502193550 | -5 | 98 | 14.5 | 25.7 | 0.00 | 0.00 | 0.00 | 10 | 813.1 |
| 20260502193220 | -5 | 113 | 12.9 | 19.3 | 0.00 | 0.00 | 0.00 | 10 | 813.3 |
| 20260502193000 | -5 | 99 | 16.1 | 32.2 | 0.00 | 0.00 | 0.00 | 10 | 813.1 |